TimeCEST,TemperatureF,Dew PointF,Humidity,Sea Level PressureIn,VisibilityMPH,Wind Direction,Wind SpeedMPH,Gust SpeedMPH,PrecipitationIn,Events,Conditions,WindDirDegrees,DateUTC
12:20 AM,44.6,42.8,93,29.86,6.2,SW,4.6,-,N/A,,Scattered Clouds,220,2012-10-10 22:20:00
12:50 AM,44.6,42.8,93,29.86,6.2,SW,5.8,-,N/A,,Partly Cloudy,230,2012-10-10 22:50:00
1:20 AM,44.6,42.8,93,29.86,6.2,SSW,3.5,-,N/A,Fog,Shallow Fog,210,2012-10-10 23:20:00
1:50 AM,44.6,42.8,93,29.86,6.2,WSW,3.5,-,N/A,Fog,Shallow Fog,240,2012-10-10 23:50:00
2:00 AM,46,44,90,29.88,12,WSW,3.5,,,Fog,Patches of Fog,240,2012-10-11 00:00:00
2:20 AM,44.6,42.8,93,29.86,6.2,SSW,3.5,-,N/A,Fog,Shallow Fog,210,2012-10-11 00:20:00
2:50 AM,42.8,41.0,93,29.86,6.2,SW,4.6,-,N/A,Fog,Shallow Fog,230,2012-10-11 00:50:00
3:20 AM,41.0,39.2,93,29.86,6.2,SSW,3.5,-,N/A,Fog,Shallow Fog,200,2012-10-11 01:20:00
3:50 AM,42.8,41.0,93,29.86,6.2,SSW,3.5,-,N/A,Fog,Shallow Fog,210,2012-10-11 01:50:00
4:20 AM,41.0,41.0,100,29.86,6.2,SSW,3.5,-,N/A,Fog,Shallow Fog,210,2012-10-11 02:20:00
4:50 AM,41.0,39.2,93,29.89,6.2,SSW,3.5,-,N/A,Fog,Shallow Fog,200,2012-10-11 02:50:00
5:00 AM,42,41,93,29.89,12,SSW,3.5,,,Fog,Patches of Fog,210,2012-10-11 03:00:00
5:20 AM,41.0,39.2,93,29.89,6.2,ESE,1.2,-,N/A,Fog,Shallow Fog,120,2012-10-11 03:20:00
5:50 AM,41.0,39.2,93,29.89,6.2,South,2.3,-,N/A,Fog,Shallow Fog,170,2012-10-11 03:50:00
6:20 AM,41.0,39.2,93,29.89,6.2,SSE,1.2,-,N/A,Fog,Patches of Fog,150,2012-10-11 04:20:00
6:50 AM,41.0,39.2,93,29.89,6.2,ESE,2.3,-,N/A,Fog,Patches of Fog,110,2012-10-11 04:50:00
7:20 AM,39.2,39.2,100,29.89,6.2,East,2.3,-,N/A,Fog,Patches of Fog,80,2012-10-11 05:20:00
7:50 AM,39.2,39.2,100,29.89,0.1,Calm,Calm,-,N/A,Fog,Patches of Fog,0,2012-10-11 05:50:00
8:00 AM,39,38,96,29.91,0,ESE,1.2,,,Fog,Partial Fog,110,2012-10-11 06:00:00
8:20 AM,39.2,37.4,93,29.89,0.2,SE,1.2,-,N/A,Fog,Fog,130,2012-10-11 06:20:00
8:50 AM,41.0,39.2,93,29.92,5.6,ENE,3.5,-,N/A,Fog,Fog,70,2012-10-11 06:50:00
9:20 AM,42.8,41.0,93,29.92,5.6,East,1.2,-,N/A,,Partly Cloudy,80,2012-10-11 07:20:00
9:50 AM,44.6,44.6,100,29.92,5.6,East,1.2,-,N/A,,Partly Cloudy,90,2012-10-11 07:50:00
10:20 AM,46.4,46.4,100,29.92,5.6,ENE,3.5,-,N/A,,Partly Cloudy,70,2012-10-11 08:20:00
10:50 AM,48.2,46.4,93,29.92,5.6,ENE,3.5,-,N/A,,Partly Cloudy,70,2012-10-11 08:50:00
11:00 AM,49,47,91,29.94,6,East,4.6,,,,Mist,80,2012-10-11 09:00:00
11:20 AM,50.0,48.2,94,29.92,5.6,East,4.6,-,N/A,,Partly Cloudy,80,2012-10-11 09:20:00
11:50 AM,51.8,46.4,82,29.92,6.2,ESE,3.5,-,N/A,,Partly Cloudy,110,2012-10-11 09:50:00
12:20 PM,53.6,46.4,77,29.92,6.2,ESE,4.6,-,N/A,,Partly Cloudy,120,2012-10-11 10:20:00
12:50 PM,53.6,44.6,72,29.92,6.2,ESE,5.8,-,N/A,,Partly Cloudy,110,2012-10-11 10:50:00
1:20 PM,55.4,44.6,67,29.92,6.2,SE,5.8,-,N/A,,Partly Cloudy,140,2012-10-11 11:20:00
1:50 PM,55.4,44.6,67,29.92,6.2,ESE,5.8,-,N/A,,Partly Cloudy,120,2012-10-11 11:50:00
2:00 PM,56,45,57,29.94,16,SSE,4.6,,,,Partly Cloudy,150,2012-10-11 12:00:00
2:20 PM,55.4,44.6,67,29.92,6.2,SE,5.8,-,N/A,,Partly Cloudy,130,2012-10-11 12:20:00
2:50 PM,55.4,44.6,67,29.92,6.2,East,9.2,-,N/A,,Partly Cloudy,100,2012-10-11 12:50:00
3:20 PM,55.4,44.6,67,29.92,6.2,East,9.2,-,N/A,,Partly Cloudy,100,2012-10-11 13:20:00
3:50 PM,55.4,46.4,72,29.92,6.2,East,10.4,-,N/A,,Partly Cloudy,100,2012-10-11 13:50:00
4:20 PM,53.6,42.8,67,29.92,6.2,ESE,10.4,-,N/A,,Partly Cloudy,110,2012-10-11 14:20:00
4:50 PM,53.6,41.0,62,29.92,6.2,ESE,10.4,-,N/A,,Partly Cloudy,110,2012-10-11 14:50:00
5:00 PM,53,43,58,29.95,16,ESE,10.4,,,,Scattered Clouds,110,2012-10-11 15:00:00
5:20 PM,51.8,44.6,76,29.92,6.2,ESE,9.2,-,N/A,,Partly Cloudy,120,2012-10-11 15:20:00
5:50 PM,50.0,42.8,76,29.95,6.2,ESE,9.2,-,N/A,,Partly Cloudy,110,2012-10-11 15:50:00
6:20 PM,50.0,42.8,76,29.95,6.2,ESE,6.9,-,N/A,,Partly Cloudy,120,2012-10-11 16:20:00
6:50 PM,42.8,39.2,87,29.95,6.2,East,6.9,-,N/A,,Partly Cloudy,90,2012-10-11 16:50:00
7:20 PM,42.8,39.2,87,29.95,6.2,East,4.6,-,N/A,,Partly Cloudy,100,2012-10-11 17:20:00
7:50 PM,44.6,41.0,87,29.95,-9999.0,East,4.6,-,N/A,,Clear,90,2012-10-11 17:50:00
8:00 PM,43,40,86,29.96,6,East,4.6,,,,,80,2012-10-11 18:00:00
8:20 PM,42.8,39.2,87,29.95,-9999.0,East,4.6,-,N/A,,Clear,80,2012-10-11 18:20:00
8:50 PM,42.8,39.2,87,29.95,-9999.0,East,4.6,-,N/A,,Clear,80,2012-10-11 18:50:00
9:20 PM,42.8,41.0,93,29.95,-9999.0,ESE,2.3,-,N/A,,Clear,120,2012-10-11 19:20:00
9:50 PM,42.8,41.0,93,29.95,-9999.0,East,4.6,-,N/A,,Clear,100,2012-10-11 19:50:00
10:20 PM,41.0,39.2,93,29.95,-9999.0,East,4.6,-,N/A,,Clear,80,2012-10-11 20:20:00
10:50 PM,41.0,39.2,93,29.95,-9999.0,East,4.6,-,N/A,,Clear,80,2012-10-11 20:50:00
11:00 PM,41,38,87,29.97,6,ENE,2.3,,,Fog,Patches of Fog,70,2012-10-11 21:00:00
11:20 PM,41.0,39.2,93,29.95,-9999.0,East,4.6,-,N/A,,Clear,80,2012-10-11 21:20:00
11:50 PM,41.0,37.4,87,29.98,-9999.0,ENE,2.3,-,N/A,,Clear,70,2012-10-11 21:50:00